When you browse on this site, cookies collect data to enhance your experience and personalize the content and advertising you see.
Visit our Privacy Policy to learn more. By continuing to use the site, you agree to this use of cookies and data.
  • In Austria
  • List of Countries
  • For 7 days
  • Water Temperature
  • Satellite Maps
  • Weather Map
  • News
  • Weather Widgets
  • user-avatar
    Login

    Hourly Weather Vila Real

    Today, 23 March, Saturday

    Time Temperature Precipitation Wind Pressure Humidity
    00:00 +9°C° 0 mm 1 mps 727 mmHg 58%
    01:00 +9°C° 0 mm 1 mps 727 mmHg 59%
    02:00 +9°C° 0 mm 1 mps 727 mmHg 60%
    03:00 +8°C° 0 mm 1 mps 727 mmHg 61%
    04:00 +8°C° 0 mm 1 mps 727 mmHg 62%
    05:00 +8°C° 0 mm 1 mps 727 mmHg 64%
    06:00 +10°C° 0 mm 1 mps 727 mmHg 59%
    07:00 +10°C° 0 mm 2 mps 727 mmHg 54%
    08:00 +13°C° 0 mm 2 mps 727 mmHg 50%
    09:00 +15°C° 0 mm 2 mps 727 mmHg 45%
    10:00 +17°C° 0 mm 2 mps 727 mmHg 41%
    11:00 +18°C° 0 mm 2 mps 727 mmHg 36%
    12:00 +19°C° 0 mm 2 mps 726 mmHg 35%
    13:00 +20°C° 0 mm 2 mps 726 mmHg 34%
    14:00 +20°C° 0 mm 2 mps 725 mmHg 34%
    15:00 +19°C° 0 mm 2 mps 725 mmHg 38%
    16:00 +20°C° 0 mm 1 mps 725 mmHg 42%
    17:00 +19°C° 0 mm 1 mps 725 mmHg 47%
    18:00 +16°C° 0 mm 1 mps 725 mmHg 49%
    19:00 +15°C° 0 mm 2 mps 725 mmHg 52%
    20:00 +13°C° 0 mm 2 mps 725 mmHg 55%
    21:00 +13°C° 0 mm 2 mps 725 mmHg 56%
    22:00 +12°C° 0 mm 2 mps 725 mmHg 58%
    23:00 +10°C° 0 mm 2 mps 725 mmHg 59%

    Tomorrow, 24 March, Sunday

    Time Temperature Precipitation Wind Pressure Humidity
    00:00 +10°C° 0 mm 2 mps 725 mmHg 60%
    01:00 +10°C° 0 mm 2 mps 725 mmHg 61%
    02:00 +10°C° 0 mm 1 mps 725 mmHg 62%
    03:00 +9°C° 0 mm 2 mps 725 mmHg 63%
    04:00 +9°C° 0 mm 2 mps 725 mmHg 64%
    05:00 +8°C° 0 mm 2 mps 725 mmHg 64%
    06:00 +10°C° 0 mm 2 mps 725 mmHg 60%
    07:00 +12°C° 0 mm 3 mps 726 mmHg 56%
    08:00 +14°C° 0 mm 3 mps 726 mmHg 52%
    09:00 +16°C° 0 mm 3 mps 726 mmHg 47%
    10:00 +18°C° 0 mm 4 mps 726 mmHg 43%
    11:00 +20°C° 0 mm 4 mps 726 mmHg 39%
    12:00 +21°C° 0 mm 4 mps 725 mmHg 35%
    13:00 +21°C° 0 mm 4 mps 725 mmHg 32%
    14:00 +22°C° 0 mm 4 mps 725 mmHg 29%
    15:00 +21°C° 0 mm 4 mps 724 mmHg 32%
    16:00 +20°C° 0 mm 3 mps 724 mmHg 35%
    17:00 +19°C° 0 mm 3 mps 724 mmHg 38%
    18:00 +17°C° 0 mm 3 mps 724 mmHg 40%
    19:00 +15°C° 0 mm 2 mps 724 mmHg 41%
    20:00 +14°C° 0 mm 2 mps 725 mmHg 43%
    21:00 +13°C° 0 mm 2 mps 725 mmHg 46%
    22:00 +13°C° 0 mm 2 mps 725 mmHg 49%
    23:00 +12°C° 0 mm 2 mps 725 mmHg 52%

    Day after tomorrow, 25 March, Monday

    Time Temperature Precipitation Wind Pressure Humidity
    00:00 +10°C° 0 mm 2 mps 725 mmHg 56%
    01:00 +10°C° 0 mm 2 mps 724 mmHg 59%
    02:00 +9°C° 0 mm 2 mps 724 mmHg 63%
    03:00 +9°C° 0 mm 2 mps 724 mmHg 62%
    04:00 +9°C° 0 mm 2 mps 724 mmHg 62%
    05:00 +8°C° 0 mm 2 mps 724 mmHg 61%
    06:00 +10°C° 0 mm 2 mps 724 mmHg 57%
    07:00 +11°C° 0 mm 3 mps 724 mmHg 53%
    08:00 +13°C° 0 mm 3 mps 725 mmHg 49%
    09:00 +16°C° 0 mm 3 mps 724 mmHg 46%
    10:00 +17°C° 0 mm 3 mps 724 mmHg 43%
    11:00 +19°C° 0 mm 3 mps 724 mmHg 39%
    12:00 +20°C° 0 mm 4 mps 724 mmHg 37%
    13:00 +20°C° 0 mm 4 mps 723 mmHg 34%
    14:00 +21°C° 0 mm 4 mps 722 mmHg 31%
    15:00 +20°C° 0 mm 4 mps 722 mmHg 34%
    16:00 +19°C° 0 mm 4 mps 722 mmHg 38%
    17:00 +18°C° 0 mm 3 mps 721 mmHg 41%
    18:00 +17°C° 0 mm 3 mps 722 mmHg 44%
    19:00 +14°C° 0 mm 4 mps 722 mmHg 48%
    20:00 +13°C° 0 mm 4 mps 722 mmHg 52%
    21:00 +12°C° 0 mm 3 mps 722 mmHg 56%
    22:00 +11°C° 0 mm 3 mps 722 mmHg 61%
    23:00 +10°C° 0 mm 3 mps 722 mmHg 65%

    26 March, Tuesday

    Time Temperature Precipitation Wind Pressure Humidity
    00:00 +10°C° 0 mm 3 mps 722 mmHg 65%
    01:00 +9°C° 0 mm 3 mps 722 mmHg 64%
    02:00 +9°C° 0 mm 3 mps 722 mmHg 64%
    03:00 +8°C° 0 mm 3 mps 722 mmHg 64%
    04:00 +8°C° 0 mm 3 mps 722 mmHg 65%
    05:00 +7°C° 0 mm 3 mps 722 mmHg 65%
    06:00 +9°C° 0 mm 3 mps 722 mmHg 63%
    07:00 +10°C° 0 mm 4 mps 722 mmHg 61%
    08:00 +11°C° 0 mm 4 mps 722 mmHg 59%
    09:00 +13°C° 0 mm 5 mps 722 mmHg 53%
    10:00 +15°C° 0 mm 5 mps 721 mmHg 48%
    11:00 +19°C° 0 mm 6 mps 721 mmHg 43%
    12:00 +20°C° 0 mm 6 mps 721 mmHg 40%
    13:00 +21°C° 0 mm 7 mps 720 mmHg 38%
    14:00 +22°C° 0 mm 7 mps 720 mmHg 35%
    15:00 +22°C° 0 mm 6 mps 720 mmHg 38%
    16:00 +21°C° 0 mm 5 mps 720 mmHg 41%
    17:00 +20°C° 0 mm 4 mps 720 mmHg 44%
    18:00 +19°C° 0 mm 4 mps 720 mmHg 47%
    19:00 +17°C° 0 mm 3 mps 720 mmHg 49%
    20:00 +16°C° 0 mm 3 mps 721 mmHg 52%
    21:00 +14°C° 0 mm 3 mps 721 mmHg 54%
    22:00 +14°C° 0 mm 3 mps 721 mmHg 55%
    23:00 +13°C° 0 mm 3 mps 721 mmHg 57%

    27 March, Wednesday

    Time Temperature Precipitation Wind Pressure Humidity
    00:00 +13°C° 0 mm 3 mps 722 mmHg 57%
    01:00 +12°C° 0 mm 3 mps 722 mmHg 57%
    02:00 +12°C° 0 mm 4 mps 722 mmHg 57%
    03:00 +12°C° 0 mm 3 mps 722 mmHg 58%
    04:00 +11°C° 0 mm 3 mps 722 mmHg 59%
    05:00 +11°C° 0 mm 3 mps 722 mmHg 60%
    06:00 +12°C° 0 mm 3 mps 722 mmHg 57%
    07:00 +13°C° 0 mm 4 mps 723 mmHg 54%
    08:00 +14°C° 0 mm 4 mps 723 mmHg 51%
    09:00 +15°C° 0 mm 4 mps 723 mmHg 47%
    10:00 +17°C° 0 mm 5 mps 723 mmHg 43%
    11:00 +19°C° 0 mm 5 mps 724 mmHg 38%
    12:00 +20°C° 0 mm 5 mps 723 mmHg 36%
    13:00 +21°C° 0 mm 5 mps 723 mmHg 34%
    14:00 +22°C° 0 mm 5 mps 723 mmHg 31%
    15:00 +21°C° 0 mm 5 mps 722 mmHg 34%
    16:00 +19°C° 0 mm 5 mps 722 mmHg 37%
    17:00 +18°C° 0 mm 4 mps 722 mmHg 39%
    18:00 +17°C° 0 mm 3 mps 723 mmHg 43%
    19:00 +16°C° 0 mm 2 mps 723 mmHg 47%
    20:00 +14°C° 0 mm 2 mps 723 mmHg 50%
    21:00 +14°C° 0 mm 1 mps 723 mmHg 52%
    22:00 +13°C° 0 mm 1 mps 723 mmHg 53%
    23:00 +12°C° 0 mm 1 mps 723 mmHg 55%

    28 March, Thursday

    Time Temperature Precipitation Wind Pressure Humidity
    00:00 +12°C° 0 mm 1 mps 723 mmHg 54%
    01:00 +10°C° 0 mm 2 mps 723 mmHg 54%
    02:00 +10°C° 0 mm 2 mps 723 mmHg 53%
    03:00 +9°C° 0 mm 2 mps 723 mmHg 54%
    04:00 +9°C° 0 mm 2 mps 723 mmHg 55%
    05:00 +8°C° 0 mm 2 mps 723 mmHg 56%
    06:00 +10°C° 0 mm 2 mps 724 mmHg 53%
    07:00 +12°C° 0 mm 2 mps 724 mmHg 51%
    08:00 +13°C° 0 mm 2 mps 725 mmHg 49%
    09:00 +15°C° 0 mm 2 mps 725 mmHg 48%
    10:00 +16°C° 0 mm 2 mps 725 mmHg 48%
    11:00 +18°C° 0 mm 2 mps 725 mmHg 47%
    12:00 +18°C° 0 mm 2 mps 725 mmHg 47%
    13:00 +19°C° 0 mm 2 mps 725 mmHg 48%
    14:00 +19°C° 0 mm 2 mps 724 mmHg 48%
    15:00 +19°C° 0 mm 2 mps 724 mmHg 53%
    16:00 +18°C° 0 mm 2 mps 724 mmHg 58%
    17:00 +17°C° 0 mm 2 mps 724 mmHg 63%
    18:00 +16°C° 0 mm 2 mps 725 mmHg 66%
    19:00 +14°C° 0 mm 1 mps 725 mmHg 70%
    20:00 +13°C° 0 mm 1 mps 725 mmHg 74%
    21:00 +13°C° 0 mm 1 mps 725 mmHg 76%
    22:00 +12°C° 0 mm 1 mps 725 mmHg 78%
    23:00 +12°C° 0 mm 1 mps 725 mmHg 79%
    Show more